Weather reports worldwide

Advertisment
Luqa, Malta (16597): temperature & dewpoint: 11.01.2021 22:00:00 - 17.01.2021 22:00:00 (CET)Luqa, Malta (16597): wind speed: 11.01.2021 22:00:00 - 17.01.2021 22:00:00 (CET)Luqa, Malta (16597): wind direction: 11.01.2021 22:00:00 - 17.01.2021 22:00:00 (CET)Luqa, Malta (16597): reduced air pressure: 11.01.2021 22:00:00 - 17.01.2021 22:00:00 (CET)Luqa, Malta (16597): visibility: 11.01.2021 22:00:00 - 17.01.2021 22:00:00 (CET)
Date & Time tt [°C] td [°C] ff [km/h] ff [kn] dd ppp [hPa] vv [km]
17.01.2021 22:00:00 13,4 9,3 48 26 W 1015,8 10
17.01.2021 21:00:00 13,0 10,0 44 24 W - 10
17.01.2021 20:00:00 13,0 10,0 42 23 WNW - 10
17.01.2021 19:00:00 13,5 6,1 34 18 W 1017,3 10
17.01.2021 18:00:00 12,0 10,0 26 14 W - 10
17.01.2021 17:00:00 12,0 9,0 28 15 WNW - 10
17.01.2021 16:00:00 12,0 7,9 26 14 W 1018,4 10
17.01.2021 15:00:00 12,0 7,0 24 13 W - 10
17.01.2021 14:00:00 13,0 6,0 26 14 W - 10
17.01.2021 13:00:00 13,0 6,4 21 11 W 1020,3 10
17.01.2021 12:00:00 13,0 5,0 24 13 WNW - 10
17.01.2021 11:00:00 13,0 6,0 9 5 WNW - 10
17.01.2021 10:00:00 11,5 4,4 16 9 NW 1022,3 10
17.01.2021 09:00:00 10,0 5,0 4 2 - - 10
17.01.2021 08:00:00 8,0 2,0 11 6 W - 10
17.01.2021 07:00:00 6,0 1,8 13 7 NW 1020,9 10
17.01.2021 06:00:00 8,0 2,0 15 8 NNW - 10
17.01.2021 05:00:00 8,0 3,0 21 11 NNW - 10
17.01.2021 04:00:00 7,3 3,5 16 9 N 1019,9 10
17.01.2021 03:00:00 8,0 5,0 11 6 NNW - 10
17.01.2021 02:00:00 9,0 8,0 11 6 W - 10
17.01.2021 01:00:00 7,9 7,3 2 1 - 1019,1 10
17.01.2021 00:00:00 8,0 7,0 4 2 NNE - 10
16.01.2021 23:00:00 9,0 8,0 4 2 - - 10
16.01.2021 22:00:00 9,4 8,6 13 7 NE 1018,1 10
16.01.2021 21:00:00 9,0 8,0 5 3 S - 10
16.01.2021 20:00:00 9,0 8,0 8 4 W - 7
16.01.2021 19:00:00 14,6 9,2 8 4 ESE 1016,2 10
16.01.2021 18:00:00 10,0 9,0 8 4 SE - 10
16.01.2021 17:00:00 11,0 8,0 2 1 - - 10
16.01.2021 16:00:00 11,7 8,5 9 5 NNW 1014,3 10
16.01.2021 15:00:00 12,0 8,0 18 10 NNW - 10
16.01.2021 14:00:00 14,0 6,0 15 8 N - 10
16.01.2021 13:00:00 13,9 7,5 21 11 N 1013,5 10
16.01.2021 12:00:00 14,0 8,0 18 10 N - 10
16.01.2021 11:00:00 14,0 8,0 22 12 NNW - 10
16.01.2021 10:00:00 13,6 8,1 18 10 NNW 1014,1 10
16.01.2021 09:00:00 13,0 10,0 13 7 N - 10
16.01.2021 08:00:00 12,0 9,0 13 7 NNE - 10
16.01.2021 07:00:00 13,7 11,0 22 12 NNW 1012,1 10
16.01.2021 06:00:00 12,0 8,0 26 14 NW - 10
16.01.2021 05:00:00 12,0 8,0 35 19 NW - 10
16.01.2021 04:00:00 12,2 7,6 39 21 NW 1010,4 10
16.01.2021 03:00:00 12,0 7,0 37 20 WNW - 10
16.01.2021 02:00:00 12,0 10,0 39 21 WNW - 10
16.01.2021 01:00:00 12,1 8,7 42 23 WNW 1010,7 10
16.01.2021 00:00:00 11,0 9,0 41 22 WNW - 10
15.01.2021 23:00:00 13,0 8,0 48 26 WNW - 10
15.01.2021 22:00:00 13,4 7,0 41 22 WNW 1012,2 10
15.01.2021 21:00:00 13,0 7,0 35 19 WNW - 10
15.01.2021 20:00:00 14,0 7,0 37 20 WNW - 10
15.01.2021 19:00:00 15,7 12,6 35 19 WNW 1012,9 10
15.01.2021 18:00:00 14,0 8,0 29 16 WNW - 10
15.01.2021 17:00:00 14,0 8,0 37 20 NW - 10
15.01.2021 16:00:00 14,7 8,2 35 19 WNW 1012,8 10
15.01.2021 15:00:00 15,0 10,0 37 20 WNW - 10
15.01.2021 14:00:00 16,0 9,0 39 21 WNW - 10
15.01.2021 13:00:00 15,3 10,6 37 20 NW 1012,8 10
15.01.2021 12:00:00 15,0 11,0 35 19 NW - 10
15.01.2021 11:00:00 14,0 11,0 28 15 NW - 10
15.01.2021 10:00:00 14,7 10,5 35 19 NW 1014,2 10
15.01.2021 09:00:00 13,0 10,0 22 12 WNW - 10
15.01.2021 08:00:00 13,0 8,0 26 14 WNW - 10
15.01.2021 07:00:00 14,1 12,6 26 14 NW 1013,5 10
15.01.2021 06:00:00 13,0 9,0 26 14 WNW - 10
15.01.2021 05:00:00 13,0 8,0 26 14 WNW - 10
15.01.2021 04:00:00 13,0 9,2 31 17 WNW 1013,3 10
15.01.2021 03:00:00 13,0 9,0 35 19 WNW - 10
15.01.2021 02:00:00 13,0 9,0 35 19 WNW - 10
15.01.2021 01:00:00 13,0 9,4 31 17 WNW 1014,0 10
15.01.2021 00:00:00 13,0 10,0 31 17 WNW - 8
14.01.2021 23:00:00 13,0 11,0 37 20 WNW - 10
14.01.2021 22:00:00 13,2 10,4 35 19 WNW 1014,6 10
14.01.2021 21:00:00 14,0 11,0 37 20 WNW - 10
14.01.2021 20:00:00 14,0 10,0 39 21 WNW - 10
14.01.2021 19:00:00 15,4 11,3 44 24 WNW 1014,5 10
14.01.2021 18:00:00 13,0 10,0 37 20 WNW - 10
14.01.2021 17:00:00 13,0 11,0 39 21 WNW - 6
14.01.2021 16:00:00 13,0 11,0 34 18 W 1015,0 7
14.01.2021 15:00:00 13,0 11,0 42 23 WNW - 8
14.01.2021 14:00:00 14,0 11,0 44 24 WNW - 10
14.01.2021 13:00:00 13,8 11,7 35 19 WNW 1016,1 10
14.01.2021 12:00:00 15,0 11,0 34 18 WNW - 10
14.01.2021 11:00:00 14,0 12,0 21 11 WNW - 10
14.01.2021 10:00:00 14,8 11,4 22 12 WNW 1018,3 9
14.01.2021 09:00:00 15,0 11,0 8 4 WNW - 10
14.01.2021 08:00:00 13,0 10,0 11 6 WNW - 10
14.01.2021 07:00:00 11,8 9,6 15 8 NW 1018,3 10
14.01.2021 06:00:00 12,0 10,0 15 8 WNW - 10
14.01.2021 05:00:00 11,0 10,0 15 8 NW - 10
14.01.2021 04:00:00 12,1 10,0 16 9 NW 1018,5 10
14.01.2021 03:00:00 12,0 10,0 16 9 WNW - 10
14.01.2021 02:00:00 12,0 10,0 15 8 NW - 10
14.01.2021 01:00:00 11,8 9,7 16 9 NW 1018,8 10
14.01.2021 00:00:00 12,0 9,0 21 11 NW - 10
13.01.2021 23:00:00 12,0 9,0 26 14 NNW - 10
13.01.2021 22:00:00 12,4 8,8 21 11 WNW 1018,8 10
13.01.2021 21:00:00 12,0 9,0 21 11 NW - 10
13.01.2021 20:00:00 13,0 8,0 24 13 NW - 10
13.01.2021 19:00:00 12,5 8,6 24 13 NW 1017,5 10
13.01.2021 18:00:00 13,0 8,0 26 14 NW - 10
13.01.2021 17:00:00 13,0 9,0 24 13 NW - 10
13.01.2021 16:00:00 14,2 8,9 31 17 NW 1016,1 10
13.01.2021 15:00:00 14,0 9,0 35 19 NW - 10
13.01.2021 14:00:00 14,0 10,0 39 21 NW - 10
13.01.2021 13:00:00 13,5 10,6 31 17 NW 1016,2 10
13.01.2021 12:00:00 12,0 11,0 28 15 NNW - 7
13.01.2021 11:00:00 13,0 10,0 37 20 NW - 9
13.01.2021 10:00:00 13,5 9,6 24 13 NW 1017,6 10
13.01.2021 09:00:00 12,0 9,0 13 7 NW - 10
13.01.2021 08:00:00 11,0 8,0 15 8 NW - 10
13.01.2021 07:00:00 10,4 6,3 18 10 NW 1017,0 10
13.01.2021 06:00:00 10,0 6,0 28 15 NW - 10
13.01.2021 05:00:00 10,0 5,0 31 17 NW - 10
13.01.2021 04:00:00 9,7 4,9 29 16 NW 1016,8 10
13.01.2021 03:00:00 10,0 5,0 28 15 NNW - 10
13.01.2021 02:00:00 10,0 5,0 29 16 NW - 10
13.01.2021 01:00:00 9,5 5,1 28 15 NW 1016,8 10
13.01.2021 00:00:00 10,0 5,0 26 14 NW - 10
12.01.2021 23:00:00 10,0 5,0 26 14 NW - 10
12.01.2021 22:00:00 9,9 5,5 24 13 NW 1016,4 10
12.01.2021 21:00:00 10,0 6,0 28 15 WNW - 10
12.01.2021 20:00:00 9,0 6,0 21 11 NW - 10
12.01.2021 19:00:00 14,8 10,1 44 24 NW 1015,5 10
12.01.2021 18:00:00 11,0 6,0 31 17 WNW - 10
12.01.2021 17:00:00 11,0 6,0 24 13 NW - 10
12.01.2021 16:00:00 12,3 6,8 28 15 NW 1014,5 10
12.01.2021 15:00:00 13,0 8,0 26 14 NW - 10
12.01.2021 14:00:00 12,0 9,0 29 16 NW - 10
12.01.2021 13:00:00 14,2 9,1 35 19 WNW 1013,8 10
12.01.2021 12:00:00 15,0 9,0 31 17 WNW - 10
12.01.2021 11:00:00 14,0 9,0 31 17 W - 10
12.01.2021 10:00:00 14,3 8,7 29 16 W 1014,9 10
12.01.2021 09:00:00 14,0 9,0 28 15 W - 10
12.01.2021 08:00:00 13,0 8,0 22 12 W - 10
12.01.2021 07:00:00 11,6 9,7 11 6 W 1014,0 10
12.01.2021 06:00:00 11,0 8,0 9 5 W - 10
12.01.2021 05:00:00 11,0 8,0 11 6 WNW - 10
12.01.2021 04:00:00 11,3 9,2 15 8 W 1014,0 10
12.01.2021 03:00:00 12,0 9,0 15 8 WNW - 10
12.01.2021 02:00:00 12,0 10,0 16 9 WNW - 10
12.01.2021 01:00:00 12,0 10,2 16 9 WNW 1014,0 10
12.01.2021 00:00:00 11,0 10,0 11 6 WNW - 10
11.01.2021 23:00:00 12,0 10,0 15 8 NW - 10
11.01.2021 22:00:00 12,6 9,7 18 10 NW 1014,0 10

tt = temperature
td = dewpoint
ff = wind speed
dd = wind direction
ppp = reduced air pressure
vv = visibility

Next stations